User: anonymous   Login
Location: Unspecified
(0.0000°N, 0.0000°E)
Time: 13:31:18
(UTC+00:00)
Language:

STARLINK-1041 - Orbit

View from above orbital plane
View from above orbital plane
View from above satellite
View from above satellite

Ground track
Ground track

The orbit data is extracted from the following two-line orbital elements,

1 44746C 19074AK  21102.08505579  .00005918  00000-0  39659-3 0  1025
2 44746  53.0538 353.9438 0001944  83.6006  15.5135 15.06384617    19
Epoch (UTC): 12 April 2021 02:02:28
Eccentricity: 0.0001944
inclination: 53.0538°
perigee height: 546 km
apogee height: 548 km
right ascension of ascending node: 353.9438°
argument of perigee: 83.6006°
revolutions per day: 15.06384617
mean anomaly at epoch: 15.5135°
orbit number at epoch: 1

The dashed part of the orbit path shows where the satellite is in the earth's shadow,  

DLR